Weather History for Manistique, MI

Change the Weather History Date:

Sunday, March 23, 2014

  Actual Average Record
Temperature  
Mean Temperature 10 °F -  
Max Temperature 21 °F 37 °F 53 °F (2012)
Min Temperature -2 °F 21 °F -3 °F (1965)
Degree Days  
Heating Degree Days 56    
Moisture  
Dew Point 0 °F    
Average Humidity 66    
Maximum Humidity 86    
Minimum Humidity 40    
Precipitation  
Precipitation 0.00 in - - ()
Sea Level Pressure  
Sea Level Pressure 30.33 in    
Wind  
Wind Speed 7 mph (NW)    
Max Wind Speed 13 mph    
Max Gust Speed 21 mph    
Visibility 10 miles    
Events Snow    
Averages and records for this station are not official NWS values.
T = Trace of Precipitation, MM = Missing Value Source: NWS Daily Summary

Daily Weather History Graph

Daily Weather History Graph

Search for Another Location

Airport:

Trip Planner

Search our weather history database for the weather conditions in past years. The results will help you decide how hot, cold, wet, or windy it might be!

Date:

Astronomy

Mar. 23, 2014 Rise Set
Actual Time 7:41 AM EDT 8:01 PM EDT
Civil Twilight 7:12 AM EDT 8:31 PM EDT
Nautical Twilight 6:36 AM EDT 9:06 PM EDT
Astronomical Twilight 6:00 AM EDT 9:42 PM EDT
Moon 2:33 AM EDT (3/23) 12:07 PM EDT (3/23)
Length of Visible Light 13h 19m
Length of Day
12h 19m
Waning Gibbous, 55% of the Moon is Illuminated
Mar 23
Waning Gibbous
Mar 23
Last Quarter
Mar 30
New
Apr 7
First Quarter
Apr 15
Full

Hourly Weather History & Observations

Time (EDT) Temp. Windchill Dew Point Humidity Pressure Visibility Wind Dir Wind Speed Gust Speed Precip Events Conditions
12:14 AM 6.4 °F -3.9 °F 0.5 °F 77% 30.32 in 10.0 mi WNW 5.8 mph - N/A   Mostly Cloudy
12:35 AM 8.6 °F -2.6 °F 2.3 °F 76% 30.31 in 10.0 mi West 6.9 mph - N/A   Overcast
12:55 AM 7.3 °F -4.1 °F 1.2 °F 76% 30.32 in 10.0 mi West 6.9 mph - N/A Snow Light Snow
1:15 AM 6.1 °F -5.6 °F 0.3 °F 77% 30.32 in 10.0 mi West 6.9 mph - N/A   Clear
1:35 AM 7.3 °F -2.8 °F 1.8 °F 78% 30.32 in 10.0 mi West 5.8 mph - N/A   Clear
1:54 AM 5.4 °F -6.5 °F -0.0 °F 78% 30.32 in 10.0 mi WNW 6.9 mph - N/A   Clear
2:15 AM 5.7 °F -4.8 °F 0.5 °F 79% 30.32 in 10.0 mi West 5.8 mph - N/A   Clear
2:35 AM 4.6 °F -2.5 °F -0.4 °F 80% 30.32 in 10.0 mi West 3.5 mph - N/A   Clear
2:54 AM 5.9 °F -3.0 °F 1.0 °F 80% 30.32 in 10.0 mi West 4.6 mph - N/A   Clear
3:15 AM 5.9 °F -4.5 °F 1.0 °F 80% 30.32 in 10.0 mi West 5.8 mph - N/A   Clear
3:35 AM 3.2 °F -7.8 °F -1.3 °F 82% 30.32 in 10.0 mi West 5.8 mph - N/A   Clear
3:54 AM 2.3 °F -10.2 °F -1.7 °F 84% 30.32 in 10.0 mi WNW 6.9 mph - N/A   Clear
4:15 AM 0.9 °F -10.5 °F -2.9 °F 84% 30.33 in 10.0 mi WNW 5.8 mph - N/A   Clear
4:35 AM 2.1 °F -10.4 °F -1.5 °F 85% 30.33 in 10.0 mi WNW 6.9 mph - N/A   Clear
4:55 AM 2.7 °F -10.9 °F -1.5 °F 83% 30.33 in 10.0 mi WNW 8.1 mph - N/A   Clear
5:15 AM 2.3 °F -11.4 °F -1.7 °F 84% 30.33 in 10.0 mi WNW 8.1 mph - N/A   Clear
5:34 AM 1.9 °F -10.6 °F -2.0 °F 83% 30.33 in 10.0 mi WNW 6.9 mph - N/A   Clear
5:55 AM 0.9 °F -13.1 °F -2.6 °F 86% 30.33 in 10.0 mi WNW 8.1 mph - N/A   Clear
6:15 AM 0.5 °F -13.6 °F -3.1 °F 85% 30.33 in 10.0 mi WNW 8.1 mph - N/A   Clear
6:35 AM -0.2 °F -13.2 °F -3.8 °F 85% 30.34 in 10.0 mi WNW 6.9 mph - N/A   Clear
6:55 AM -0.4 °F -14.7 °F -4.0 °F 85% 30.34 in 10.0 mi WNW 8.1 mph - N/A   Clear
7:14 AM -0.2 °F -13.2 °F -3.8 °F 85% 30.34 in 10.0 mi WNW 6.9 mph - N/A   Clear
7:35 AM -0.4 °F -13.4 °F -4.0 °F 85% 30.35 in 10.0 mi WNW 6.9 mph - N/A   Clear
7:55 AM -2.0 °F -13.9 °F -5.4 °F 85% 30.36 in 10.0 mi WNW 5.8 mph - N/A   Clear
8:14 AM -1.3 °F -14.5 °F -4.9 °F 85% 30.36 in 10.0 mi WNW 6.9 mph - N/A   Clear
8:35 AM 0.1 °F -12.8 °F -4.0 °F 83% 30.36 in 10.0 mi WNW 6.9 mph - N/A   Clear
8:55 AM 3.0 °F -9.3 °F -1.8 °F 80% 30.36 in 10.0 mi WNW 6.9 mph - N/A   Clear
9:14 AM 4.5 °F -7.6 °F -0.9 °F 78% 30.36 in 10.0 mi WNW 6.9 mph - N/A   Clear
9:35 AM 8.2 °F -3.0 °F 1.8 °F 75% 30.36 in 10.0 mi WNW 6.9 mph - N/A   Clear
9:55 AM 9.5 °F -2.6 °F 2.1 °F 72% 30.36 in 10.0 mi NW 8.1 mph - N/A   Clear
10:15 AM 11.3 °F 1.9 °F 2.7 °F 68% 30.36 in 10.0 mi NW 5.8 mph - N/A   Clear
10:35 AM 13.1 °F 5.4 °F 3.0 °F 64% 30.36 in 10.0 mi NW 4.6 mph - N/A   Clear
10:54 AM 15.3 °F 5.4 °F 3.0 °F 58% 30.36 in 10.0 mi NW 6.9 mph - N/A   Clear
11:15 AM 17.2 °F 7.8 °F 3.2 °F 54% 30.36 in 10.0 mi WNW 6.9 mph - N/A   Scattered Clouds
11:35 AM 16.5 °F 3.6 °F 2.5 °F 54% 30.36 in 10.0 mi West 11.5 mph 20.7 mph N/A   Mostly Cloudy
11:54 AM 17.6 °F 5.0 °F 1.9 °F 50% 30.36 in 10.0 mi NNW 11.5 mph 17.3 mph N/A   Mostly Cloudy
12:15 PM 18.0 °F 5.4 °F 1.6 °F 49% 30.35 in 10.0 mi NNW 11.5 mph 18.4 mph N/A   Mostly Cloudy
12:35 PM 18.0 °F 4.8 °F 1.6 °F 49% 30.35 in 10.0 mi NNW 12.7 mph - N/A   Overcast
12:54 PM 18.0 °F 4.8 °F 2.1 °F 50% 30.35 in 10.0 mi NNW 12.7 mph 17.3 mph N/A   Overcast
1:15 PM 18.1 °F 5.0 °F 0.9 °F 47% 30.35 in 10.0 mi NW 12.7 mph - N/A   Overcast
1:35 PM 19.0 °F 8.2 °F 2.3 °F 48% 30.34 in 10.0 mi NNW 9.2 mph 18.4 mph N/A   Overcast
1:55 PM 19.6 °F 8.1 °F 3.0 °F 49% 30.34 in 10.0 mi NNW 10.4 mph - N/A   Overcast
2:15 PM 19.2 °F 9.3 °F 2.7 °F 49% 30.33 in 10.0 mi North 8.1 mph - N/A   Overcast
2:34 PM 18.7 °F 7.8 °F 2.1 °F 49% 30.33 in 10.0 mi NW 9.2 mph - N/A   Mostly Cloudy
2:55 PM 19.6 °F 8.9 °F 2.3 °F 47% 30.33 in 10.0 mi NNW 9.2 mph 17.3 mph N/A   Overcast
3:15 PM 20.1 °F 11.3 °F 1.8 °F 45% 30.32 in 10.0 mi WNW 6.9 mph 19.6 mph N/A   Mostly Cloudy
3:34 PM 21.6 °F 9.3 °F 1.9 °F 43% 30.32 in 10.0 mi NW 12.7 mph 16.1 mph N/A   Mostly Cloudy
3:55 PM 19.9 °F 7.9 °F -1.1 °F 40% 30.31 in 10.0 mi NNW 11.5 mph 16.1 mph N/A   Overcast
4:15 PM 20.1 °F 11.3 °F 1.0 °F 44% 30.31 in 10.0 mi North 6.9 mph - N/A   Overcast
4:34 PM 20.3 °F 11.5 °F 1.0 °F 43% 30.31 in 10.0 mi NNW 6.9 mph 19.6 mph N/A   Overcast
4:55 PM 19.4 °F 7.2 °F 1.2 °F 45% 30.30 in 10.0 mi North 11.5 mph - N/A   Overcast
5:15 PM 19.4 °F 8.6 °F 1.4 °F 46% 30.30 in 10.0 mi NW 9.2 mph - N/A   Overcast
5:35 PM 20.3 °F 11.5 °F 2.3 °F 46% 30.30 in 10.0 mi North 6.9 mph - N/A   Overcast
5:55 PM 20.5 °F 9.2 °F 3.0 °F 47% 30.30 in 10.0 mi NW 10.4 mph 18.4 mph N/A   Overcast
6:14 PM 19.9 °F 8.6 °F 2.5 °F 47% 30.30 in 10.0 mi North 10.4 mph - N/A   Overcast
6:35 PM 19.2 °F 7.7 °F 2.1 °F 47% 30.30 in 10.0 mi North 10.4 mph - N/A   Mostly Cloudy
6:54 PM 18.5 °F 8.4 °F 1.4 °F 47% 30.31 in 10.0 mi NNW 8.1 mph - N/A   Scattered Clouds
7:15 PM 18.0 °F 8.7 °F 1.0 °F 48% 30.31 in 10.0 mi NNW 6.9 mph - N/A   Mostly Cloudy
7:34 PM 17.2 °F 7.8 °F 1.4 °F 50% 30.31 in 10.0 mi NNW 6.9 mph - N/A   Overcast
7:55 PM 16.0 °F 8.8 °F 1.4 °F 53% 30.31 in 10.0 mi North 4.6 mph - N/A   Scattered Clouds
8:15 PM 15.1 °F 7.7 °F 1.4 °F 55% 30.31 in 10.0 mi North 4.6 mph - N/A   Scattered Clouds
8:34 PM 13.6 °F 7.7 °F 0.9 °F 57% 30.31 in 10.0 mi North 3.5 mph - N/A   Scattered Clouds
8:55 PM 12.2 °F 4.3 °F 0.7 °F 60% 30.32 in 10.0 mi North 4.6 mph - N/A   Scattered Clouds
9:15 PM 10.8 °F 2.7 °F 0.5 °F 63% 30.32 in 10.0 mi North 4.6 mph - N/A   Scattered Clouds
9:34 PM 9.3 °F 2.8 °F 0.1 °F 66% 30.32 in 10.0 mi North 3.5 mph - N/A   Clear
9:55 PM 6.6 °F -2.2 °F -1.3 °F 70% 30.32 in 10.0 mi North 4.6 mph - N/A   Clear
10:14 PM 7.5 °F 0.8 °F -0.0 °F 71% 30.32 in 10.0 mi North 3.5 mph - N/A   Clear
10:35 PM 3.0 °F -6.4 °F -2.7 °F 77% 30.32 in 10.0 mi North 4.6 mph - N/A   Clear
10:55 PM 4.6 °F -4.5 °F -1.8 °F 75% 30.31 in 10.0 mi North 4.6 mph - N/A   Clear
11:14 PM 2.8 °F - -2.4 °F 79% 30.31 in 10.0 mi Calm Calm - N/A   Clear
11:35 PM 3.0 °F -4.4 °F -2.9 °F 76% 30.31 in 10.0 mi NNW 3.5 mph - N/A   Clear
11:55 PM 3.4 °F - -2.4 °F 77% 30.31 in 10.0 mi Calm Calm - N/A   Clear